This is the latest recevied weather packets stored in our database for station/object JH0KSP-13. If no packets are shown the sender has not sent any weather packets the latest 10 day(s).
| Time | Temp. | Humidity | Pressure | Rain* | Wind** | Luminosity | Snow |
|---|---|---|---|---|---|---|---|
| 1777404609 | 16.11° C | 73% | 1011 hPa | 0 mm | - | - | - |
| 1777404009 | 16.11° C | 71% | 1011 hPa | 0 mm | - | - | - |
| 1777403457 | 16.11° C | 69% | 1011.1 hPa | 0 mm | - | - | - |
| 1777403408 | 16.11° C | 69% | 1011.1 hPa | 0 mm | - | - | - |
| 1777402808 | 16.11° C | 69% | 1011.1 hPa | 0 mm | - | - | - |
| 1777402256 | 16.11° C | 68% | 1011.2 hPa | 0 mm | - | - | - |
| 1777402208 | 16.11° C | 68% | 1011.2 hPa | 0 mm | - | - | - |
| 1777401610 | 16.11° C | 68% | 1011.2 hPa | 0 mm | - | - | - |
| 1777401056 | 16.11° C | 69% | 1011 hPa | 0 mm | - | - | - |
| 1777401010 | 16.11° C | 69% | 1011 hPa | 0 mm | - | - | - |
| 1777400409 | 16.11° C | 70% | 1011.1 hPa | 0 mm | - | - | - |
| 1777399857 | 17.22° C | 69% | 1011.1 hPa | 0 mm | - | - | - |
| 1777399808 | 17.22° C | 69% | 1011.1 hPa | 0 mm | - | - | - |
| 1777399208 | 17.22° C | 67% | 1011.2 hPa | 0 mm | - | - | - |
| 1777398657 | 17.22° C | 68% | 1011.1 hPa | 0 mm | - | - | - |
| 1777398608 | 17.22° C | 68% | 1011.1 hPa | 0 mm | - | - | - |
| 1777398008 | 17.22° C | 66% | 1011.1 hPa | 0 mm | - | - | - |
| 1777397457 | 17.22° C | 69% | 1011.1 hPa | 0 mm | - | - | - |
| 1777397408 | 17.22° C | 69% | 1011.1 hPa | 0 mm | - | - | - |
| 1777396809 | 17.22° C | 71% | 1011.2 hPa | 0 mm | - | - | - |
| 1777396256 | 17.22° C | 68% | 1011.3 hPa | 0 mm | - | - | - |
| 1777396210 | 17.22° C | 68% | 1011.3 hPa | 0 mm | - | - | - |
| 1777395610 | 17.22° C | 69% | 1011.4 hPa | 0 mm | - | - | - |
| 1777395056 | 17.22° C | 70% | 1011.6 hPa | 0 mm | - | - | - |
| 1777395009 | 17.22° C | 70% | 1011.6 hPa | 0 mm | - | - | - |
* Rain latest hour (hover to see other rain measurements)
** Current wind speed in m/s (hover to see current wind gust speed)